EZY96BR LFML-EGKK

Flight info

Callsign EZY96BR
Flight time N/A
Altitude 34000
Route ETREK DCT MADOT DCT MOPEM DCT CACHI DCT AVLON DCT OKRIX DCT BRY DCT CLM DCT KOPOR DCT KESAX DCT KUNAV
Aircraft A20N/M-SDE2E3FGHIJ1RWXYZ/LB1G1

Departure

Time 2026-04-27 19:13
Airport Marseille Provence Airport (LFML)

Arrival

Time N/A
Airport London Gatwick Airport (EGKK)
Time Latitude Longitude Altitude Speed Heading
2026-04-27 18:44 43.43863 5.22314 41 ft 0 kts 74°
2026-04-27 19:02 43.43860 5.22304 39 ft 2 kts 74°
2026-04-27 19:02 43.43856 5.22284 39 ft 2 kts 74°
2026-04-27 19:03 43.43852 5.22264 38 ft 2 kts 74°
2026-04-27 19:03 43.43849 5.22248 37 ft 0 kts 74°
2026-04-27 19:03 43.43845 5.22232 37 ft 2 kts 48°
2026-04-27 19:03 43.43837 5.22223 36 ft 2 kts 30°
2026-04-27 19:04 43.43818 5.22216 36 ft 1 kts 352°
2026-04-27 19:04 43.43811 5.22218 36 ft 1 kts 339°
2026-04-27 19:04 43.43808 5.22220 37 ft 0 kts 344°
2026-04-27 19:07 43.43812 5.22218 37 ft 3 kts 344°
2026-04-27 19:08 43.43861 5.22183 35 ft 10 kts 309°
2026-04-27 19:08 43.43835 5.22098 33 ft 12 kts 223°
2026-04-27 19:08 43.43781 5.22007 32 ft 12 kts 266°
2026-04-27 19:08 43.43840 5.21900 29 ft 16 kts 317°
2026-04-27 19:09 43.43925 5.21780 25 ft 18 kts 312°
2026-04-27 19:09 43.43984 5.21667 22 ft 13 kts 273°
2026-04-27 19:09 43.43933 5.21566 23 ft 13 kts 239°
2026-04-27 19:09 43.43945 5.21449 22 ft 14 kts 313°
2026-04-27 19:10 43.44019 5.21345 21 ft 16 kts 314°
2026-04-27 19:10 43.44102 5.21226 19 ft 19 kts 314°
2026-04-27 19:10 43.44204 5.21081 17 ft 23 kts 313°
2026-04-27 19:10 43.44275 5.20962 16 ft 25 kts 304°
2026-04-27 19:11 43.44417 5.20709 13 ft 25 kts 313°
2026-04-27 19:11 43.44541 5.20531 11 ft 25 kts 313°
2026-04-27 19:11 43.44659 5.20366 11 ft 17 kts 315°
2026-04-27 19:11 43.44656 5.20263 11 ft 12 kts 225°
2026-04-27 19:12 43.44585 5.20206 11 ft 10 kts 157°
2026-04-27 19:12 43.44527 5.20281 11 ft 13 kts 133°
2026-04-27 19:12 43.44344 5.20543 13 ft 72 kts 134°
2026-04-27 19:12 43.43842 5.21257 25 ft 134 kts 134°
2026-04-27 19:13 43.43089 5.22326 213 ft 168 kts 135°
2026-04-27 19:13 43.42271 5.23499 819 ft 172 kts 133°
2026-04-27 19:13 43.41461 5.24686 1542 ft 173 kts 131°
2026-04-27 19:13 43.40873 5.26094 2146 ft 179 kts 98°
2026-04-27 19:14 43.41056 5.27837 2544 ft 196 kts 63°
2026-04-27 19:14 43.41981 5.29248 2954 ft 214 kts 29°
2026-04-27 19:14 43.43478 5.29704 3342 ft 235 kts 350°
2026-04-27 19:14 43.44961 5.28686 3846 ft 251 kts 311°
2026-04-27 19:15 43.45749 5.26512 4390 ft 265 kts 277°
2026-04-27 19:15 43.45794 5.23947 5150 ft 272 kts 272°
2026-04-27 19:15 43.46236 5.21450 5950 ft 275 kts 301°
2026-04-27 19:15 43.47456 5.19498 6820 ft 274 kts 326°
2026-04-27 19:16 43.49185 5.18494 7664 ft 275 kts 348°
2026-04-27 19:16 43.50442 5.18133 8231 ft 277 kts 348°
2026-04-27 19:16 43.52950 5.17413 9294 ft 283 kts 348°
2026-04-27 19:16 43.54869 5.16859 10103 ft 286 kts 348°
2026-04-27 19:17 43.56838 5.16290 10766 ft 295 kts 348°
2026-04-27 19:17 43.58902 5.15692 11174 ft 313 kts 348°